• In Deutschland
  • Länderverzeichnis
  • Für 7 Tage
  • Wassertemperatur
  • Satellitenkarten
  • Wetterkarte
  • Widgets
  • user-avatar
    Anmelden

    Stündliche Wetter Obertshausen

    Heute, 24 Juni, Sonntag

    Zeit Temperatur Niederschläge Wind Luftdruck Luftfeuchtigkeit
    00:00 +12°C° 0 mm 1 m/S 757 mmHg 85%
    01:00 +12°C° 0 mm 1 m/S 756 mmHg 86%
    02:00 +11°C° 0 mm 1 m/S 756 mmHg 87%
    03:00 +10°C° 0 mm 0 m/S 756 mmHg 87%
    04:00 +10°C° 0 mm 0 m/S 756 mmHg 88%
    05:00 +11°C° 0 mm 0 m/S 756 mmHg 84%
    06:00 +13°C° 0 mm 0 m/S 756 mmHg 79%
    07:00 +14°C° 0 mm 0 m/S 756 mmHg 75%
    08:00 +16°C° 0 mm 1 m/S 756 mmHg 69%
    09:00 +19°C° 0 mm 1 m/S 755 mmHg 64%
    10:00 +19°C° 0 mm 2 m/S 755 mmHg 59%
    11:00 +20°C° 0 mm 2 m/S 755 mmHg 56%
    12:00 +20°C° 0 mm 2 m/S 755 mmHg 54%
    13:00 +21°C° 0 mm 3 m/S 755 mmHg 52%
    14:00 +21°C° 0 mm 3 m/S 755 mmHg 52%
    15:00 +21°C° 0 mm 3 m/S 754 mmHg 53%
    16:00 +21°C° 0 mm 3 m/S 754 mmHg 53%
    17:00 +20°C° 0 mm 3 m/S 754 mmHg 59%
    18:00 +19°C° 0 mm 3 m/S 754 mmHg 64%
    19:00 +18°C° 0 mm 3 m/S 754 mmHg 70%
    20:00 +17°C° 0 mm 2 m/S 754 mmHg 73%
    21:00 +16°C° 0 mm 2 m/S 755 mmHg 77%
    22:00 +15°C° 0 mm 1 m/S 755 mmHg 80%
    23:00 +15°C° 0 mm 1 m/S 755 mmHg 82%

    Morgen, 25 Juni, Montag

    Zeit Temperatur Niederschläge Wind Luftdruck Luftfeuchtigkeit
    00:00 +15°C° 0 mm 1 m/S 755 mmHg 84%
    01:00 +14°C° 0 mm 1 m/S 755 mmHg 85%
    02:00 +14°C° 0 mm 1 m/S 755 mmHg 87%
    03:00 +14°C° 0 mm 1 m/S 755 mmHg 88%
    04:00 +14°C° 0 mm 1 m/S 755 mmHg 90%
    05:00 +14°C° 0 mm 1 m/S 755 mmHg 87%
    06:00 +15°C° 0 mm 2 m/S 755 mmHg 85%
    07:00 +16°C° 0 mm 2 m/S 756 mmHg 83%
    08:00 +16°C° 0 mm 2 m/S 756 mmHg 78%
    09:00 +17°C° 0 mm 2 m/S 756 mmHg 74%
    10:00 +18°C° 0 mm 2 m/S 756 mmHg 70%
    11:00 +19°C° 0 mm 2 m/S 756 mmHg 69%
    12:00 +19°C° 0 mm 2 m/S 756 mmHg 68%
    13:00 +20°C° 0 mm 3 m/S 756 mmHg 67%
    14:00 +20°C° 0 mm 3 m/S 756 mmHg 64%
    15:00 +21°C° 0 mm 3 m/S 756 mmHg 62%
    16:00 +22°C° 0 mm 3 m/S 756 mmHg 59%
    17:00 +21°C° 0 mm 2 m/S 756 mmHg 62%
    18:00 +21°C° 0 mm 2 m/S 756 mmHg 65%
    19:00 +21°C° 0 mm 2 m/S 756 mmHg 67%
    20:00 +20°C° 0 mm 1 m/S 756 mmHg 71%
    21:00 +19°C° 0 mm 1 m/S 756 mmHg 76%
    22:00 +18°C° 0 mm 1 m/S 756 mmHg 80%
    23:00 +16°C° 0 mm 1 m/S 756 mmHg 81%

    übermorgen, 26 Juni, Dienstag

    Zeit Temperatur Niederschläge Wind Luftdruck Luftfeuchtigkeit
    00:00 +16°C° 0 mm 1 m/S 756 mmHg 82%
    01:00 +16°C° 0 mm 1 m/S 756 mmHg 84%
    02:00 +15°C° 0 mm 1 m/S 756 mmHg 85%
    03:00 +15°C° 0 mm 1 m/S 756 mmHg 87%
    04:00 +14°C° 0 mm 1 m/S 756 mmHg 88%
    05:00 +15°C° 0 mm 1 m/S 756 mmHg 85%
    06:00 +16°C° 0 mm 1 m/S 756 mmHg 82%
    07:00 +18°C° 0 mm 1 m/S 756 mmHg 79%
    08:00 +19°C° 0 mm 1 m/S 756 mmHg 75%
    09:00 +19°C° 0 mm 2 m/S 756 mmHg 70%
    10:00 +20°C° 0 mm 2 m/S 756 mmHg 65%
    11:00 +21°C° 0 mm 2 m/S 756 mmHg 63%
    12:00 +21°C° 0 mm 2 m/S 756 mmHg 62%
    13:00 +23°C° 0 mm 2 m/S 756 mmHg 60%
    14:00 +24°C° 0 mm 2 m/S 756 mmHg 58%
    15:00 +24°C° 0 mm 2 m/S 755 mmHg 55%
    16:00 +25°C° 0 mm 2 m/S 755 mmHg 53%
    17:00 +25°C° 0 mm 2 m/S 755 mmHg 57%
    18:00 +24°C° 0 mm 2 m/S 755 mmHg 61%
    19:00 +24°C° 0 mm 2 m/S 755 mmHg 65%
    20:00 +21°C° 0 mm 2 m/S 755 mmHg 70%
    21:00 +19°C° 0 mm 2 m/S 756 mmHg 75%
    22:00 +19°C° 0 mm 1 m/S 756 mmHg 80%
    23:00 +18°C° 0 mm 1 m/S 756 mmHg 82%

    27 Juni, Mittwoch

    Zeit Temperatur Niederschläge Wind Luftdruck Luftfeuchtigkeit
    00:00 +16°C° 0 mm 1 m/S 756 mmHg 84%
    01:00 +16°C° 0 mm 1 m/S 756 mmHg 86%
    02:00 +15°C° 0 mm 1 m/S 756 mmHg 87%
    03:00 +15°C° 0 mm 1 m/S 756 mmHg 89%
    04:00 +15°C° 0 mm 1 m/S 756 mmHg 90%
    05:00 +16°C° 0 mm 1 m/S 756 mmHg 86%
    06:00 +18°C° 0 mm 1 m/S 756 mmHg 83%
    07:00 +19°C° 0 mm 1 m/S 756 mmHg 79%
    08:00 +21°C° 0 mm 1 m/S 756 mmHg 72%
    09:00 +23°C° 0 mm 2 m/S 756 mmHg 65%
    10:00 +25°C° 0 mm 2 m/S 756 mmHg 58%
    11:00 +26°C° 0 mm 2 m/S 756 mmHg 55%
    12:00 +27°C° 0 mm 3 m/S 755 mmHg 52%
    13:00 +28°C° 0 mm 3 m/S 755 mmHg 49%
    14:00 +28°C° 0 mm 3 m/S 755 mmHg 48%
    15:00 +28°C° 0 mm 3 m/S 754 mmHg 48%
    16:00 +28°C° 0 mm 3 m/S 754 mmHg 48%
    17:00 +27°C° 0 mm 3 m/S 754 mmHg 52%
    18:00 +26°C° 0 mm 3 m/S 754 mmHg 57%
    19:00 +25°C° 0 mm 3 m/S 754 mmHg 62%
    20:00 +24°C° 0 mm 3 m/S 754 mmHg 67%
    21:00 +21°C° 0 mm 2 m/S 754 mmHg 72%
    22:00 +19°C° 0 mm 2 m/S 754 mmHg 77%
    23:00 +18°C° 0 mm 2 m/S 754 mmHg 79%

    28 Juni, Donnerstag

    Zeit Temperatur Niederschläge Wind Luftdruck Luftfeuchtigkeit
    00:00 +18°C° 0 mm 2 m/S 754 mmHg 81%
    01:00 +17°C° 0 mm 2 m/S 754 mmHg 84%
    02:00 +16°C° 0 mm 2 m/S 754 mmHg 84%
    03:00 +16°C° 0 mm 2 m/S 754 mmHg 85%
    04:00 +15°C° 0 mm 2 m/S 754 mmHg 85%
    05:00 +16°C° 0 mm 2 m/S 754 mmHg 82%
    06:00 +17°C° 0 mm 2 m/S 754 mmHg 79%
    07:00 +17°C° 0 mm 2 m/S 754 mmHg 75%
    08:00 +19°C° 0 mm 3 m/S 754 mmHg 69%
    09:00 +21°C° 0 mm 3 m/S 753 mmHg 63%
    10:00 +22°C° 0 mm 3 m/S 753 mmHg 57%
    11:00 +24°C° 0 mm 3 m/S 753 mmHg 54%
    12:00 +25°C° 0 mm 3 m/S 753 mmHg 51%
    13:00 +26°C° 0 mm 3 m/S 752 mmHg 48%
    14:00 +26°C° 0 mm 3 m/S 752 mmHg 48%
    15:00 +26°C° 0 mm 3 m/S 752 mmHg 48%
    16:00 +27°C° 0 mm 3 m/S 751 mmHg 47%
    17:00 +26°C° 0 mm 3 m/S 751 mmHg 52%
    18:00 +25°C° 0 mm 3 m/S 751 mmHg 57%
    19:00 +24°C° 0 mm 3 m/S 751 mmHg 62%
    20:00 +23°C° 0 mm 2 m/S 751 mmHg 68%
    21:00 +20°C° 0 mm 2 m/S 751 mmHg 73%
    22:00 +19°C° 0 mm 2 m/S 751 mmHg 78%
    23:00 +18°C° 0 mm 2 m/S 751 mmHg 81%

    29 Juni, Freitag

    Zeit Temperatur Niederschläge Wind Luftdruck Luftfeuchtigkeit
    00:00 +18°C° 0 mm 2 m/S 751 mmHg 83%
    01:00 +17°C° 0 mm 2 m/S 751 mmHg 86%
    02:00 +17°C° 0 mm 2 m/S 751 mmHg 87%
    03:00 +16°C° 0 mm 2 m/S 751 mmHg 88%
    04:00 +16°C° 0 mm 2 m/S 751 mmHg 89%
    05:00 +17°C° 0 mm 2 m/S 751 mmHg 84%
    06:00 +18°C° 0 mm 2 m/S 751 mmHg 79%
    07:00 +19°C° 0 mm 3 m/S 751 mmHg 74%
    08:00 +21°C° 0 mm 3 m/S 751 mmHg 68%
    09:00 +22°C° 0 mm 3 m/S 751 mmHg 61%
    10:00 +25°C° 0 mm 3 m/S 751 mmHg 55%
    11:00 +26°C° 0 mm 3 m/S 751 mmHg 52%
    12:00 +27°C° 0 mm 3 m/S 750 mmHg 49%
    13:00 +28°C° 0 mm 3 m/S 750 mmHg 47%
    14:00 +27°C° 0,1 mm 3 m/S 750 mmHg 48%
    15:00 +27°C° 0,1 mm 3 m/S 750 mmHg 49%
    16:00 +27°C° 0,1 mm 3 m/S 750 mmHg 50%
    17:00 +27°C° 0,1 mm 2 m/S 750 mmHg 54%
    18:00 +26°C° 0,1 mm 2 m/S 750 mmHg 58%
    19:00 +25°C° 0,1 mm 2 m/S 750 mmHg 62%
    20:00 +24°C° 0 mm 2 m/S 750 mmHg 67%
    21:00 +22°C° 0 mm 1 m/S 750 mmHg 71%
    22:00 +20°C° 0 mm 1 m/S 750 mmHg 76%
    23:00 +20°C° 0 mm 1 m/S 750 mmHg 78%
    Mehr zeigen